Tampa, FL

10:14 AM EST on February 26, 2017 (GMT -0500)
MacDill Air Force Base

Weather History for KMCF - January, 2013

Change the Weather History Date:

Tuesday, January 1, 2013

  Actual Average Record
Temperature  
Mean Temperature 64 °F -  
Max Temperature 77 °F 68 °F 84 °F (2017)
Min Temperature 51 °F 50 °F 41 °F (1998)
Degree Days  
Heating Degree Days 1    
Growing Degree Days 14 (Base 50)    
Moisture  
Dew Point 57 °F    
Average Humidity 88    
Maximum Humidity 100    
Minimum Humidity 58    
Precipitation  
Precipitation 0.00 in - - ()
Sea Level Pressure  
Sea Level Pressure 30.15 in    
Wind  
Wind Speed 3 mph (South)    
Max Wind Speed 12 mph    
Max Gust Speed -    
Visibility 8 miles    
Events      
Averages and records for this station are not official NWS values.
T = Trace of Precipitation, MM = Missing Value Source: NWS Daily Summary

Daily Weather History Graph

Daily Weather History Graph

Search for Another Location

Airport or City:

Trip Planner

Search our weather history database for the weather conditions in past years. The results will help you decide how hot, cold, wet, or windy it might be!

Date:

Astronomy

Jan. 01, 2013 Rise Set
Actual Time 7:21 AM EST 5:46 PM EST
Civil Twilight 6:55 AM EST 6:12 PM EST
Nautical Twilight 6:26 AM EST 6:41 PM EST
Astronomical Twilight 5:57 AM EST 7:09 PM EST
Moon 9:51 PM EST (1/1) 9:54 AM EST (1/1)
Length of Visible Light 11h 16m
Length of Day
10h 25m
Waning Gibbous, 83% of the Moon is Illuminated
Jan 1
Waning Gibbous
Jan 4
Last Quarter
Jan 11
New
Jan 18
First Quarter
Jan 26
Full

Hourly Weather History & Observations

Time (EST) Temp. Dew Point Humidity Pressure Visibility Wind Dir Wind Speed Gust Speed Precip Events Conditions
12:10 AM 51.8 °F 50.0 °F 94% 30.23 in 4.0 mi NNE 3.5 mph - N/A   Clear
12:55 AM 51.6 °F 49.8 °F 94% 30.23 in 3.0 mi Calm Calm - N/A   Clear
1:02 AM 51.8 °F 50.0 °F 94% 30.22 in 2.5 mi Calm Calm - N/A   Clear
1:06 AM 51.8 °F 50.0 °F 94% 30.22 in 2.5 mi Calm Calm - N/A   Clear
1:15 AM 51.8 °F 50.0 °F 94% 30.22 in 1.8 mi Calm Calm - N/A   Partly Cloudy
1:19 AM 51.8 °F 50.0 °F 94% 30.22 in 2.0 mi Calm Calm - N/A   Scattered Clouds
1:20 AM 51.8 °F 50.0 °F 94% 30.22 in 2.0 mi Calm Calm - N/A   Scattered Clouds
1:27 AM 51.8 °F 50.0 °F 94% 30.22 in 3.0 mi Calm Calm - N/A   Mostly Cloudy
1:55 AM 51.3 °F 49.6 °F 94% 30.21 in 3.0 mi Calm Calm - N/A   Scattered Clouds
2:46 AM 53.6 °F 53.6 °F 100% 30.19 in 4.0 mi SE 5.8 mph - N/A   Overcast
2:47 AM 55.4 °F 53.6 °F 94% 30.19 in 4.0 mi SE 5.8 mph - N/A   Overcast
2:55 AM 56.1 °F 55.9 °F 99% 30.19 in 8.0 mi SE 4.6 mph - N/A   Overcast
2:57 AM 57.2 °F 55.4 °F 94% 30.19 in 9.0 mi SE 4.6 mph - N/A   Overcast
3:55 AM 58.8 °F 58.5 °F 99% 30.17 in 10.0 mi SSE 5.8 mph - N/A   Overcast
4:55 AM 57.0 °F 56.7 °F 99% 30.15 in 10.0 mi SSE 4.6 mph - N/A   Clear
5:55 AM 54.7 °F 54.3 °F 99% 30.16 in 10.0 mi Calm Calm - N/A   Clear
6:55 AM 55.9 °F 55.9 °F 100% 30.15 in 10.0 mi SE 5.8 mph - N/A   Clear
7:55 AM 55.2 °F 55.2 °F 100% 30.17 in 10.0 mi Calm Calm - N/A   Mostly Cloudy
8:55 AM 60.3 °F 60.1 °F 99% 30.17 in 10.0 mi SSE 6.9 mph - N/A   Clear
9:55 AM 66.4 °F 60.3 °F 81% 30.18 in 10.0 mi SSE 9.2 mph - N/A   Clear
10:55 AM 70.7 °F 62.1 °F 74% 30.18 in 10.0 mi South 6.9 mph - N/A   Clear
11:55 AM 74.7 °F 62.4 °F 66% 30.15 in 10.0 mi SSW 6.9 mph - N/A   Clear
12:55 PM 77.4 °F 61.5 °F 58% 30.13 in 10.0 mi SW 6.9 mph - N/A   Partly Cloudy
1:55 PM 76.5 °F 62.8 °F 62% 30.09 in 10.0 mi SW 10.4 mph - N/A   Clear
2:55 PM 74.8 °F 62.6 °F 66% 30.06 in 10.0 mi SSW 11.5 mph - N/A   Clear
3:55 PM 73.8 °F 62.2 °F 67% 30.08 in 10.0 mi SW 6.9 mph - N/A   Clear
4:55 PM 72.3 °F 61.9 °F 70% 30.08 in 10.0 mi WSW 4.6 mph - N/A   Clear
5:55 PM 66.2 °F 59.2 °F 78% 30.08 in 10.0 mi West 4.6 mph - N/A   Scattered Clouds
6:55 PM 67.6 °F 61.3 °F 80% 30.08 in 10.0 mi West 5.8 mph - N/A   Overcast
7:55 PM 67.6 °F 61.0 °F 79% 30.09 in 10.0 mi WSW 5.8 mph - N/A   Scattered Clouds
8:55 PM 64.9 °F 60.6 °F 86% 30.09 in 10.0 mi WSW 5.8 mph - N/A   Scattered Clouds
9:55 PM 64.2 °F 60.4 °F 87% 30.08 in 10.0 mi SSW 4.6 mph - N/A   Scattered Clouds
10:55 PM 62.2 °F 61.7 °F 98% 30.07 in 10.0 mi SSE 4.6 mph - N/A   Clear
11:55 PM 63.0 °F 61.9 °F 96% 30.06 in 10.0 mi South 3.5 mph - N/A   Clear